Weather History for Port Hope, MI

Change the Weather History Date:

Wednesday, September 12, 2012

  Actual Average Record
Temperature  
Mean Temperature 72 °F -  
Max Temperature 82 °F 72 °F 90 °F (2005)
Min Temperature 62 °F 56 °F 51 °F (2014)
Cooling Degree Days 7    
Growing Degree Days 22 (Base 50)    
Moisture  
Dew Point 54 °F    
Average Humidity 57    
Maximum Humidity 70    
Minimum Humidity 38    
Precipitation  
Precipitation 0.00 in - - ()
Sea Level Pressure  
Sea Level Pressure 30.11 in    
Wind  
Wind Speed 5 mph (SW)    
Max Wind Speed 12 mph    
Max Gust Speed 24 mph    
Averages and records for this station are not official NWS values.
T = Trace of Precipitation, MM = Missing Value Source: NWS Daily Summary

Daily Weather History Graph

Daily Weather History Graph

Search for Another Location

Airport:

Trip Planner

Search our weather history database for the weather conditions in past years. The results will help you decide how hot, cold, wet, or windy it might be!

Date:

Astronomy

Sep. 12, 2012 Rise Set
Actual Time 7:07 AM EDT 7:46 PM EDT
Civil Twilight 6:38 AM EDT 8:15 PM EDT
Nautical Twilight 6:03 AM EDT 8:49 PM EDT
Astronomical Twilight 5:28 AM EDT 9:25 PM EDT
Moon 3:17 AM EDT (9/12) 5:38 PM EDT (9/12)
Length of Visible Light 13h 36m
Length of Day
12h 38m
Waning Crescent, 14% of the Moon is Illuminated
Sep 12
Waning Crescent
Sep 15
New
Sep 22
First Quarter
Sep 29
Full
Oct 8
Last Quarter

Hourly Weather History & Observations

Time (EDT) Temp. Heat Index Dew Point Humidity Pressure Visibility Wind Dir Wind Speed Gust Speed Precip Events Conditions
12:51 AM 64.9 °F - 53.1 °F 65% 30.09 in - Variable 4.6 mph - N/A   Unknown
1:51 AM 63.0 °F - 53.1 °F 70% 30.09 in - Variable 3.5 mph - N/A   Unknown
2:51 AM 64.0 °F - 52.0 °F 65% 30.10 in - Variable 4.6 mph - N/A   Unknown
3:51 AM 63.0 °F - 51.1 °F 65% 30.10 in - Calm Calm - N/A   Unknown
4:51 AM 62.1 °F - 51.1 °F 67% 30.12 in - Calm Calm - N/A   Unknown
5:51 AM 64.0 °F - 51.1 °F 63% 30.12 in - Variable 3.5 mph - N/A   Unknown
6:51 AM 63.0 °F - 51.1 °F 65% 30.12 in - Variable 4.6 mph - N/A   Unknown
7:51 AM 63.0 °F - 51.1 °F 65% 30.14 in - Variable 6.9 mph - N/A   Unknown
8:51 AM 66.9 °F - 52.0 °F 59% 30.14 in - SW 9.2 mph - N/A   Unknown
9:51 AM 70.0 °F - 54.0 °F 57% 30.13 in - SW 8.1 mph - N/A   Unknown
10:51 AM 73.9 °F - 55.0 °F 52% 30.13 in - SW 6.9 mph 18.4 mph N/A   Unknown
11:51 AM 75.9 °F - 55.9 °F 50% 30.12 in - WSW 11.5 mph 20.7 mph N/A   Unknown
12:51 PM 79.0 °F - 57.0 °F 47% 30.11 in - Variable 6.9 mph - N/A   Unknown
1:51 PM 81.0 °F 81.1 °F 57.9 °F 45% 30.11 in - Variable 5.8 mph - N/A   Unknown
2:51 PM 82.0 °F 81.6 °F 55.9 °F 41% 30.09 in - SW 10.4 mph 20.7 mph N/A   Unknown
3:51 PM 82.9 °F 82.1 °F 55.9 °F 39% 30.08 in - Variable 6.9 mph 24.2 mph N/A   Unknown
5:51 PM 82.0 °F 81.3 °F 54.0 °F 38% 30.07 in - SSW 8.1 mph - N/A   Unknown
6:51 PM 80.1 °F 80.2 °F 55.9 °F 43% 30.09 in - Variable 3.5 mph - N/A   Unknown
7:51 PM 73.9 °F - 55.9 °F 53% 30.11 in - Calm Calm - N/A   Unknown
8:51 PM 69.1 °F - 57.9 °F 68% 30.13 in - Calm Calm - N/A   Unknown
9:51 PM 69.1 °F - 55.9 °F 63% 30.14 in - Calm Calm - N/A   Unknown
10:51 PM 70.0 °F - 54.0 °F 57% 30.14 in - Calm Calm - N/A   Unknown
11:51 PM 66.9 °F - 54.0 °F 63% 30.15 in - Variable 3.5 mph - N/A   Unknown